Regional Weather Roundup
Issued by NWS

Home | Current Version | Previous Version | Text Only | Print | Product List | Glossary Off
Versions: 1 2 3 4 5 6 7 8 9 10 11 12 13 14 15 16 17 18 19 20 21 22 23 24 25 26 27 28 29 30 31 32 33 34 35 36 37 38 39 40 41 42 43 44 45 46 47 48 49 50

000
ASUS45 KBOU 220207
RWRCO

WEATHER ROUNDUP FOR COLORADO
NATIONAL WEATHER SERVICE DENVER/BOULDER CO
800 PM MDT THU MAY 21 2015

NOTE: "FAIR" INDICATES FEW OR NO CLOUDS BELOW 12000 FEET WITH NO
SIGNIFICANT WEATHER AND/OR OBSTRUCTIONS TO VISIBILITY.

COZ001>005-013-030-031-220300-
...NORTHWEST COLORADO...

CITY           SKY/WX    TMP DP  RH WIND       PRES   REMARKS
CRAIG          CLOUDY    56  39  53 SE21G28   29.95R
HAYDEN         CLOUDY    54  37  54 E16       29.98S
MEEKER         CLOUDY    55  39  54 E7        29.97R
MOUNT WERNER   NOT AVBL
STEAMBOAT SPGS CLOUDY    50  38  62 E3        30.02R
WALDEN         CLOUDY    43  36  75 W12       30.11R
$$

COZ006>008-011-220300-
...WEST CENTRAL VALLEYS...

CITY           SKY/WX    TMP DP  RH WIND       PRES   REMARKS
GRAND JUNCTION CLOUDY    58  43  57 CALM      29.90S
MONTROSE       CLOUDY    60  38  43 NE6       29.96R
EAGLE          CLOUDY    52  46  82 NE8       30.04S
RIFLE          CLOUDY    61  39  44 NE12      29.94R
DELTA          CLOUDY    64  39  39 NW7       29.93S
NUCLA          CLOUDY    61  36  39 NE8       29.95R
$$

COZ017>023-064>068-220300-
...SOUTHWEST COLORADO...

CITY           SKY/WX    TMP DP  RH WIND       PRES   REMARKS
DURANGO        CLOUDY    52  39  61 E9        30.02R
CORTEZ         MOCLDY    61  39  44 SE18G30   29.92R
PAGOSA SPRINGS CLOUDY    47  39  72 N3        30.09F
TELLURIDE      MOCLDY    48  32  54 SE5       30.10S
WOLF CREEK PAS NOT AVBL
$$

COZ009-010-012-014-032>034-037-058>063-220300-
...CENTRAL COLORADO...

CITY           SKY/WX    TMP DP  RH WIND       PRES   REMARKS
ASPEN          CLOUDY    47  40  76 SE8       30.06F
BUENA VISTA    DRIZZLE   43  38  82 CALM      30.15R
COPPER MTN     CLOUDY    36  30  80 SE8G18    30.25R
BERTHOUD PASS  FLURRIES  28  21  74 E26G36    30.30R WCI  13
COTTONWOOD PAS DRIZZLE   41  36  81 E3        30.20R
GUNNISON       CLOUDY    52  36  54 N7        30.06R
KREMMLING      CLOUDY    54  34  47 E7        30.06S
LEADVILLE      CLOUDY    36  36 100 S14       30.17S
SALIDA         CLOUDY    45  43  93 E6        30.17S
SUNLIGHT       CLOUDY    37  34  87 CALM      30.20S
WILKERSON PASS SNOW      32  32 100 SE7       30.28F VSB<1/4 WCI  26
$$

COZ069>075-220300-
...SAN LUIS VALLEY/SANGRE DE CRISTO MOUNTAINS...

CITY           SKY/WX    TMP DP  RH WIND       PRES   REMARKS
ALAMOSA        CLOUDY    48  38  68 SW15G24   30.10R
LA VETA PASS   RAIN     N/A N/A N/A MISG      30.24R VSB 3/4
SAGUACHE       CLOUDY    50  37  62 E20       30.09S
$$

COZ035-036-038>040-220300-
...NORTHERN COLORADO FRONT RANGE...

CITY           SKY/WX    TMP DP  RH WIND       PRES   REMARKS
DENVER INTL AP CLOUDY    50  45  83 S6        30.11R
DMNS CITY PARK   N/A     51  43  72 NE2       30.11S
AURORA         CLOUDY    49  44  81 N3        30.12R
FRONT RANGE AP CLOUDY    52  46  82 W5        30.12R
ERIE MUNI ARPT CLOUDY    51  45  79 CALM      30.10R
BOULDER MUN AP CLOUDY    52  43  71 CALM      30.10R
CENTENNIAL     CLOUDY    50  41  71 S12       30.11R
BROOMFIELD     CLOUDY    50  45  81 W6        30.12R
FORT COLLINS   CLOUDY    52  45  76 CALM      30.10S
LONGMONT       CLOUDY    55  45  71 CALM      30.11S
$$

COZ041-046-047-076>085-087-088-220300-
...PIKES PEAK/PALMER DIVIDE AND SOUTHERN FOOTHILLS...

CITY           SKY/WX    TMP DP  RH WIND       PRES   REMARKS
COLO. SPRINGS  LGT RAIN  47  45  93 SE3       30.15S FOG
A. F. ACADEMY  CLOUDY    44  44 100 S6        30.14S
ELLICOTT       NOT AVBL
FALCON         FOG       44  44  99 SE12      30.17R VSB 1
FORT CARSON    DRIZZLE   46  46 100 W3        30.14R FOG
LIMON          CLOUDY    46  44  93 SE13      30.16R
MONUMENT HILL  NOT AVBL
TRINIDAD       CLOUDY    52  44  74 SW15      30.09S
$$

COZ042>045-048>051-090-091-220300-
...NORTHEAST COLORADO...

CITY           SKY/WX    TMP DP  RH WIND       PRES   REMARKS
GREELEY ARPT   CLOUDY    54  45  71 SE14      30.10S
AKRON          CLOUDY    51  44  77 SE13      30.15R
BURLINGTON     CLOUDY    51  44  77 SE13      30.17S
WRAY           CLOUDY    55  44  64 SE12G21   30.17R
STERLING       CLOUDY    54  45  71 S13       30.13S
HOLYOKE        NOT AVBL
FORT MORGAN    CLOUDY    52  44  74 SE12      30.13S
$$

COZ086-089-092>099-220300-
...SOUTHEAST COLORADO...

CITY           SKY/WX    TMP DP  RH WIND       PRES   REMARKS
PUEBLO         CLOUDY    52  47  83 E13       30.09S
LA JUNTA       CLOUDY    54  46  74 SE14      30.09S
LAMAR          CLOUDY    53  46  77 SE16      30.11F
SPRINGFIELD      N/A     49  44  83 SE14      30.12F
$$



USA.gov is the U.S. government's official web portal to all federal, state and local government web resources and services.